FW9957 Weather Reports


time (UTC)temp
F
wind
direction
speed
knots
gust
knots
rain 1hr
in
rain 24hr
in
rain mn
in
humidity
%
barometer
mb
20260906115631 75 251 0.0 0.0 0.00 0.00 0.00 99 1010.9
20260906115126 75 251 0.0 0.0 0.00 0.00 0.00 99 1010.8
20260906114619 75 248 0.0 0.0 0.00 0.00 0.00 99 1010.7
20260906114115 75 248 0.0 0.0 0.00 0.00 0.00 99 1010.8
20260906113615 75 248 0.0 0.0 0.00 0.00 0.00 99 1010.5
20260906113115 75 250 0.0 0.0 0.00 0.00 0.00 99 1010.6
20260906112614 75 249 0.0 0.0 0.00 0.00 0.00 99 1010.3
20260906112111 75 251 0.0 0.0 0.00 0.00 0.00 99 1010.6
20260906111610 75 249 0.0 0.0 0.00 0.00 0.00 99 1010.4
20260906111106 75 249 0.0 0.0 0.00 0.00 0.00 99 1010.3
20260906110605 76 248 0.0 0.0 0.00 0.00 0.00 99 1010.4
20260906110100 76 248 0.0 0.0 0.00 0.00 0.00 99 1010.2
20260906105555 76 248 0.0 0.0 0.00 0.00 0.00 99 1010.1
20260906105051 76 248 0.0 0.0 0.00 0.00 0.00 99 1010.0
20260906104549 76 248 0.0 0.0 0.00 0.00 0.00 99 1010.2
20260906104044 76 250 0.0 0.0 0.00 0.00 0.00 99 1010.0
20260906103542 76 248 0.0 0.0 0.00 0.00 0.00 99 1010.2
20260906103037 76 249 0.0 0.0 0.00 0.00 0.00 99 1010.0
20260906102531 76 249 0.0 0.0 0.00 0.00 0.00 99 1010.0
20260906102026 76 249 0.0 0.0 0.00 0.00 0.00 99 1009.8
20260906101521 76 248 0.0 0.0 0.00 0.00 0.00 99 1010.0
20260906101016 76 248 0.0 0.0 0.00 0.00 0.00 99 1010.1
20260906100512 76 248 0.0 0.0 0.00 0.00 0.00 99 1010.0
20260906100012 76 247 0.0 0.0 0.00 0.00 0.00 99 1009.9
20260906095501 76 249 0.0 0.0 0.00 0.00 0.00 99 1010.0
20260906094956 76 249 0.0 0.0 0.00 0.00 0.00 99 1009.9
20260906094455 76 248 0.0 0.0 0.00 0.00 0.00 99 1009.7
20260906093952 76 249 0.0 0.0 0.00 0.00 0.00 99 1009.7
20260906093447 76 248 0.0 0.0 0.00 0.00 0.00 99 1009.6
20260906092942 76 250 0.0 0.0 0.00 0.00 0.00 99 1009.9
20260906092441 76 250 0.0 0.0 0.00 0.00 0.00 99 1009.7
20260906091936 76 249 0.0 0.0 0.00 0.00 0.00 99 1009.7
20260906091432 76 249 0.0 0.0 0.00 0.00 0.00 99 1009.7
20260906090928 76 247 0.0 0.0 0.00 0.00 0.00 99 1009.6
20260906090423 76 250 0.0 0.0 0.00 0.00 0.00 99 1009.5
20260906085918 76 250 0.0 0.0 0.00 0.00 0.00 99 1009.4
20260906085418 76 250 0.0 0.0 0.00 0.00 0.00 99 1009.6
20260906084917 76 250 0.0 0.0 0.00 0.00 0.00 99 1009.6
20260906084412 76 248 0.0 0.0 0.00 0.00 0.00 99 1009.5
20260906083911 76 248 0.0 0.0 0.00 0.00 0.00 99 1009.3
20260906083407 76 249 0.0 0.0 0.00 0.00 0.00 99 1009.3
20260906082906 76 248 0.0 0.0 0.00 0.00 0.00 99 1009.2
20260906082401 76 248 0.0 0.0 0.00 0.00 0.00 99 1009.2
20260906081857 76 249 0.0 0.0 0.00 0.00 0.00 99 1009.0
20260906081353 76 250 0.0 0.0 0.00 0.00 0.00 99 1008.9
20260906080849 76 250 0.0 0.0 0.00 0.00 0.00 99 1008.8
20260906080345 76 249 0.0 0.0 0.00 0.00 0.00 99 1008.8
20260906075844 76 250 0.0 0.0 0.00 0.00 0.00 99 1009.0
20260906075339 76 249 0.0 0.0 0.00 0.00 0.00 99 1009.0
20260906074834 76 249 0.0 0.0 0.00 0.00 0.00 99 1009.0
20260906074334 76 249 0.0 0.0 0.00 0.00 0.00 99 1009.0
20260906073833 77 252 0.0 0.0 0.00 0.00 0.00 99 1008.8
20260906073328 77 252 0.0 0.0 0.00 0.00 0.00 99 1008.9
20260906072825 76 250 0.0 0.0 0.00 0.00 0.00 99 1008.7
20260906072320 77 249 0.0 0.0 0.00 0.00 0.00 99 1008.8
20260906071816 77 249 0.0 0.0 0.00 0.00 0.00 99 1008.8
20260906071316 77 249 0.0 0.0 0.00 0.00 0.00 99 1008.8
20260906070812 77 252 0.0 0.0 0.00 0.00 0.00 99 1008.9
20260906070308 77 252 0.0 0.0 0.00 0.00 0.00 99 1008.6
20260906065802 77 252 0.0 0.0 0.00 0.00 0.00 99 1008.9
20260906065257 77 252 0.0 0.0 0.00 0.00 0.00 99 1008.9
20260906064753 77 252 0.0 0.0 0.00 0.00 0.00 99 1009.0
20260906064249 77 252 0.0 0.0 0.00 0.00 0.00 99 1009.1
20260906063744 77 252 0.0 0.0 0.00 0.00 0.00 99 1009.1
20260906063239 77 253 0.0 0.0 0.00 0.00 0.00 99 1009.0
20260906062734 77 251 0.0 0.0 0.00 0.00 0.00 99 1009.0
20260906062233 77 250 0.0 0.0 0.00 0.00 0.00 99 1008.9
20260906061729 77 249 0.0 0.0 0.00 0.00 0.00 99 1009.0
20260906061225 77 252 0.0 0.0 0.00 0.00 0.00 99 1009.2
20260906060720 77 252 0.0 0.0 0.00 0.00 0.00 99 1009.2
20260906060218 77 252 0.0 0.0 0.00 0.00 0.00 99 1009.2
20260906055713 77 252 0.0 0.0 0.00 0.00 0.00 99 1009.1
20260906055209 77 252 0.0 0.0 0.00 0.00 0.00 99 1009.4
20260906054703 77 249 0.0 0.0 0.00 0.00 0.00 99 1009.3
20260906054158 77 249 0.0 0.0 0.00 0.00 0.00 99 1009.2
20260906053655 77 249 0.0 0.0 0.00 0.00 0.00 99 1009.2
20260906053150 77 252 0.0 0.0 0.00 0.00 0.00 99 1009.2
20260906052645 77 252 0.0 0.0 0.00 0.00 0.00 99 1009.1
20260906052142 77 254 0.0 0.0 0.00 0.00 0.00 99 1009.3
20260906051638 77 250 0.0 0.0 0.00 0.00 0.00 99 1009.3
20260906051137 78 250 0.0 0.0 0.00 0.00 0.00 99 1009.4
20260906050633 78 248 0.0 0.0 0.00 0.00 0.00 99 1009.3
20260906050128 78 250 0.0 0.0 0.00 0.00 0.00 99 1009.4
20260906045627 78 250 0.0 0.0 0.00 0.00 0.00 99 1009.5
20260906045122 78 250 0.0 0.0 0.00 0.00 0.00 99 1009.5
20260906044618 78 249 0.0 0.0 0.00 0.00 0.00 99 1009.7
20260906044113 78 250 0.0 0.0 0.00 0.00 0.00 99 1009.7
20260906043609 78 252 0.9 0.9 0.00 0.00 0.00 99 1009.6
20260906043104 78 253 0.0 0.0 0.00 0.00 0.00 99 1009.6
20260906042604 78 258 0.0 0.0 0.00 0.00 0.00 99 1009.7
20260906042058 78 254 0.0 0.0 0.00 0.00 0.00 99 1009.7
20260906041554 78 248 0.0 0.0 0.00 0.00 0.00 99 1009.6
20260906041049 78 251 0.0 0.0 0.00 0.00 0.00 98 1009.6
20260906040544 78 251 0.0 0.0 0.00 0.00 0.00 98 1009.6
20260906040040 78 251 0.0 0.0 0.00 0.00 0.00 98 1009.6
20260906035535 78 250 0.0 0.0 0.00 0.00 0.00 98 1009.5
20260906035031 78 250 0.0 0.0 0.00 0.00 0.00 98 1009.7
20260906034530 78 250 0.0 0.0 0.00 0.00 0.00 98 1009.8
20260906034025 78 250 0.0 0.0 0.00 0.00 0.00 98 1009.8
20260906033521 78 252 0.0 0.0 0.00 0.00 0.00 98 1009.7
20260906033016 78 253 0.0 0.0 0.00 0.00 0.00 98 1009.7
20260906032512 78 250 0.0 0.0 0.00 0.00 0.00 98 1009.9
20260906032007 78 253 0.0 0.0 0.00 0.00 0.00 98 1010.0
20260906031502 78 254 0.0 0.0 0.00 0.00 0.00 98 1009.8
20260906030957 78 253 0.0 0.0 0.00 0.00 0.00 98 1010.0
20260906030451 79 252 0.0 0.0 0.00 0.00 0.00 97 1009.9
20260906025946 79 252 0.0 0.0 0.00 0.00 0.00 97 1010.0
20260906025440 79 252 0.0 0.0 0.00 0.00 0.00 96 1009.8
20260906024939 79 252 0.0 0.0 0.00 0.00 0.00 96 1010.1
20260906024438 79 250 0.0 0.0 0.00 0.00 0.00 96 1009.9
20260906023933 79 247 0.0 0.0 0.00 0.00 0.00 96 1009.8
20260906023429 79 253 0.0 0.0 0.00 0.00 0.00 96 1010.1
20260906022924 79 250 0.0 0.0 0.00 0.00 0.00 95 1010.0
20260906022420 79 252 0.0 0.0 0.00 0.00 0.00 96 1009.9
20260906021915 79 252 0.0 0.0 0.00 0.00 0.00 96 1009.9
20260906021414 79 252 0.0 0.0 0.00 0.00 0.00 96 1010.0
20260906020908 79 252 0.0 0.0 0.00 0.00 0.00 96 1009.9
20260906020403 79 252 0.0 0.0 0.00 0.00 0.00 95 1010.0
20260906015858 79 254 0.0 0.0 0.00 0.00 0.00 95 1009.9
20260906015356 79 252 0.0 0.0 0.00 0.00 0.00 95 1009.9
20260906014851 80 252 0.0 0.0 0.00 0.00 0.00 95 1009.6
20260906014351 80 250 0.0 0.0 0.00 0.00 0.00 95 1009.8
20260906013847 80 248 0.0 0.0 0.00 0.00 0.00 95 1009.7
20260906013342 80 249 0.0 0.0 0.00 0.00 0.00 95 1009.6
20260906012838 80 251 0.0 0.0 0.00 0.00 0.00 95 1009.7
20260906012333 80 250 0.0 0.0 0.00 0.00 0.00 95 1009.6
20260906011832 80 250 0.0 0.0 0.00 0.00 0.00 95 1009.5
20260906011327 80 250 0.0 0.0 0.00 0.00 0.00 95 1009.3
20260906010823 80 251 0.0 0.0 0.00 0.00 0.00 95 1009.4
20260906010319 80 251 0.0 0.0 0.00 0.00 0.00 95 1009.4
20260906005814 81 251 0.0 0.0 0.00 0.00 0.00 95 1009.2
20260906005313 81 252 0.0 0.0 0.00 0.00 0.00 94 1009.3
20260906004813 81 250 0.0 0.0 0.00 0.00 0.00 94 1009.4
20260906004312 81 250 0.0 0.0 0.00 0.00 0.00 94 1009.3
20260906003808 81 249 0.0 0.0 0.00 0.00 0.00 94 1009.3
20260906003303 81 249 0.0 0.0 0.00 0.00 0.00 94 1009.3
20260906002759 81 250 0.0 0.0 0.00 0.00 0.00 94 1009.3
20260906002258 81 250 0.0 0.0 0.00 0.00 0.00 94 1009.1
20260906001754 81 250 0.0 0.0 0.00 0.00 0.00 94 1009.2
20260906001248 81 250 0.0 0.0 0.00 0.00 0.00 94 1009.4
20260906000743 81 250 0.0 0.0 0.00 0.00 0.00 94 1009.4
20260906000238 81 250 0.0 0.0 0.00 0.00 0.00 94 1009.1
20260905235733 81 250 0.0 0.0 0.00 0.00 0.00 95 1009.2
20260905235233 81 250 0.0 0.0 0.00 0.00 0.00 95 1009.3
20260905234728 81 250 0.0 0.0 0.00 0.00 0.00 95 1009.1
20260905234224 81 252 0.0 0.0 0.00 0.00 0.00 95 1009.2
20260905233719 81 253 0.0 0.0 0.00 0.00 0.00 95 1009.5
20260905233218 81 253 0.0 0.0 0.00 0.00 0.00 94 1009.4
20260905232713 81 253 0.0 0.0 0.00 0.00 0.00 94 1009.2
20260905232209 81 252 0.0 0.0 0.00 0.00 0.00 92 1009.1
20260905231705 81 252 0.0 0.0 0.00 0.00 0.00 92 1009.0
20260905231200 81 249 0.0 0.0 0.00 0.00 0.00 93 1009.2
20260905230656 81 249 0.0 0.0 0.00 0.00 0.00 93 1009.1
20260905230154 81 250 0.0 0.0 0.00 0.00 0.00 93 1008.9
20260905225653 81 251 0.0 0.0 0.00 0.00 0.00 94 1008.8
20260905225148 81 250 0.0 0.0 0.00 0.00 0.00 94 1008.9
20260905224647 80 250 0.0 0.0 0.00 0.00 0.00 94 1009.1
20260905224142 81 250 0.0 0.0 0.00 0.00 0.00 95 1009.1
20260905223639 80 251 0.0 0.0 0.00 0.00 0.00 95 1009.0
20260905223136 81 251 0.0 0.0 0.00 0.00 0.00 95 1009.2
20260905222630 80 251 0.0 0.0 0.00 0.00 0.00 95 1009.5
20260905222120 80 251 0.0 0.0 0.00 0.00 0.00 95 1009.1
20260905221616 80 251 0.0 0.0 0.00 0.00 0.00 95 1009.1
20260905221112 80 251 0.0 0.0 0.00 0.00 0.00 95 1009.2
20260905220607 80 250 0.0 0.0 0.00 0.00 0.00 95 1009.0
20260905220104 79 249 0.0 0.0 0.00 0.00 0.00 95 1009.4
20260905215603 79 250 0.0 0.0 0.00 0.00 0.00 95 1009.4
20260905215059 79 248 0.0 0.0 0.00 0.00 0.00 95 1009.7
20260905214554 79 251 0.0 0.0 0.00 0.00 0.00 95 1009.7
20260905214049 79 249 0.0 0.0 0.00 0.00 0.00 93 1009.8
20260905213544 79 252 0.0 0.0 0.00 0.00 0.00 93 1010.0
20260905213039 79 261 0.0 0.0 0.00 0.00 0.00 92 1010.3
20260905212534 80 263 1.7 1.7 0.00 0.00 0.00 92 1010.3
20260905212033 82 302 2.6 3.5 0.00 0.00 0.00 85 1010.3
20260905211529 84 249 0.0 0.0 0.00 0.00 0.00 82 1009.9
20260905211025 85 249 0.0 0.0 0.00 0.00 0.00 80 1010.1
20260905210520 86 247 0.0 0.0 0.00 0.00 0.00 80 1009.4
20260905210020 88 180 1.7 2.6 0.00 0.00 0.00 76 1009.5
20260905205514 89 194 0.0 0.0 0.00 0.00 0.00 73 1009.5
20260905205013 89 247 0.0 0.0 0.00 0.00 0.00 72 1009.3
20260905204508 90 248 0.0 0.0 0.00 0.00 0.00 72 1009.0
20260905204003 90 245 0.0 0.0 0.00 0.00 0.00 70 1009.0
20260905203458 90 246 0.0 0.0 0.00 0.00 0.00 69 1009.1
20260905202953 91 251 0.0 0.0 0.00 0.00 0.00 70 1009.3
20260905202448 91 251 0.0 0.0 0.00 0.00 0.00 69 1009.3
20260905201943 91 183 0.0 0.0 0.00 0.00 0.00 69 1009.3
20260905201438 92 233 0.0 0.0 0.00 0.00 0.00 67 1009.6
20260905200933 92 248 0.9 1.7 0.00 0.00 0.00 66 1009.5
20260905200429 91 268 0.0 0.9 0.00 0.00 0.00 67 1009.4
20260905195927 92 251 0.0 0.0 0.00 0.00 0.00 66 1009.6
20260905195422 91 285 0.9 1.7 0.00 0.00 0.00 65 1009.7
20260905194918 91 227 0.0 0.0 0.00 0.00 0.00 66 1009.9
20260905194417 91 241 0.9 0.9 0.00 0.00 0.00 68 1009.7
20260905193917 91 243 0.0 0.0 0.00 0.00 0.00 70 1009.7
20260905193412 91 182 0.9 0.9 0.00 0.00 0.00 68 1009.8
20260905192907 91 249 0.0 0.0 0.00 0.00 0.00 69 1009.8
20260905192402 92 249 0.0 0.0 0.00 0.00 0.00 67 1009.7
20260905191857 90 255 0.0 0.0 0.00 0.00 0.00 71 1010.0
20260905191356 90 253 0.0 0.0 0.00 0.00 0.00 71 1009.8
20260905190856 89 236 0.0 0.0 0.00 0.00 0.00 73 1009.9
20260905190354 90 282 0.0 0.0 0.00 0.00 0.00 72 1009.8
20260905185853 89 249 0.0 0.0 0.00 0.00 0.00 71 1010.1
20260905185343 90 182 0.0 0.0 0.00 0.00 0.00 71 1010.4
20260905184842 90 246 0.0 0.0 0.00 0.00 0.00 72 1010.5
20260905184341 90 227 0.0 0.0 0.00 0.00 0.00 73 1010.7
20260905183840 90 259 0.0 0.0 0.00 0.00 0.00 71 1010.5
20260905183335 89 252 0.0 0.0 0.00 0.00 0.00 74 1010.6
20260905182829 89 247 0.0 0.0 0.00 0.00 0.00 74 1010.8
20260905182324 89 245 0.0 0.0 0.00 0.00 0.00 72 1010.9
20260905181819 89 248 0.0 0.0 0.00 0.00 0.00 73 1010.9
20260905181319 89 249 0.0 0.0 0.00 0.00 0.00 72 1010.9
20260905180818 88 261 0.9 0.9 0.00 0.00 0.00 76 1011.2
20260905180313 87 242 0.0 0.0 0.00 0.00 0.00 77 1011.2
20260905175808 88 239 0.0 0.0 0.00 0.00 0.00 78 1011.3
20260905175306 88 252 0.0 0.0 0.00 0.00 0.00 75 1011.4
20260905174758 88 246 0.0 0.0 0.00 0.00 0.00 75 1011.4
20260905174254 87 245 0.0 0.0 0.00 0.00 0.00 76 1011.4
20260905173749 87 252 0.0 0.0 0.00 0.00 0.00 76 1011.6
20260905173245 87 239 0.0 0.0 0.00 0.00 0.00 77 1011.6
20260905172744 87 235 0.0 0.0 0.00 0.00 0.00 77 1011.6
20260905172243 87 137 0.0 0.9 0.00 0.00 0.00 76 1011.7
20260905171740 88 227 0.0 0.0 0.00 0.00 0.00 74 1011.5
20260905171236 87 250 0.0 0.0 0.00 0.00 0.00 77 1011.7
20260905170732 87 247 0.0 0.0 0.00 0.00 0.00 75 1011.6
20260905170228 87 257 0.0 0.0 0.00 0.00 0.00 75 1012.1
20260905165727 87 293 1.7 1.7 0.00 0.00 0.00 75 1012.0
20260905165222 87 248 0.0 0.0 0.00 0.00 0.00 76 1012.0
20260905164716 87 253 0.0 0.0 0.00 0.00 0.00 77 1012.0
20260905164211 87 274 0.9 1.7 0.00 0.00 0.00 75 1012.0
20260905163707 86 270 0.9 0.9 0.00 0.00 0.00 76 1012.1
20260905163203 86 253 0.0 0.0 0.00 0.00 0.00 76 1012.2
20260905162659 86 283 1.7 1.7 0.00 0.00 0.00 76 1012.4
20260905162158 86 249 0.0 0.0 0.00 0.00 0.00 78 1012.2
20260905161653 85 250 0.0 0.0 0.00 0.00 0.00 76 1012.3
20260905161151 85 264 0.9 0.9 0.00 0.00 0.00 77 1012.5
20260905160645 85 273 0.9 1.7 0.00 0.00 0.00 79 1012.5
20260905160144 84 284 1.7 1.7 0.00 0.00 0.00 79 1012.3
20260905155639 84 250 0.0 0.0 0.00 0.00 0.00 78 1012.4
20260905155137 84 255 0.0 0.0 0.00 0.00 0.00 81 1012.5
20260905154632 84 246 0.0 0.0 0.00 0.00 0.00 81 1012.4
20260905154128 83 246 0.9 0.9 0.00 0.00 0.00 83 1012.4
20260905153623 83 249 0.0 0.0 0.00 0.00 0.00 84 1012.1
20260905153119 83 250 0.9 0.9 0.00 0.00 0.00 86 1012.3
20260905152613 82 250 0.0 0.9 0.00 0.00 0.00 85 1012.0
20260905152108 82 247 0.0 0.0 0.00 0.00 0.00 86 1012.2
20260905151603 82 258 0.0 0.0 0.00 0.00 0.00 86 1012.1
20260905151058 82 262 0.9 0.9 0.00 0.00 0.00 87 1012.1
20260905150554 80 250 0.0 0.9 0.00 0.00 0.00 92 1012.2
20260905150052 79 250 0.0 0.0 0.00 0.00 0.00 99 1012.0
20260905145550 78 249 0.0 0.0 0.00 0.00 0.00 99 1012.3
20260905145049 78 251 0.0 0.0 0.00 0.00 0.00 99 1012.1
20260905144545 78 254 0.0 0.0 0.00 0.00 0.00 99 1012.1
20260905144043 78 248 0.0 0.0 0.00 0.00 0.00 99 1012.0
20260905143538 78 252 0.0 0.0 0.00 0.00 0.00 99 1012.2
20260905143033 78 253 0.0 0.0 0.00 0.00 0.00 99 1012.1
20260905142532 78 246 0.0 0.0 0.00 0.00 0.00 99 1012.1
20260905142027 77 251 0.0 0.0 0.00 0.00 0.00 99 1012.0
20260905141527 77 251 0.0 0.0 0.00 0.00 0.00 99 1012.0
20260905141023 77 254 0.0 0.0 0.00 0.00 0.00 99 1011.8
20260905140518 77 255 0.0 0.0 0.00 0.00 0.00 99 1012.0
20260905140017 77 243 0.0 0.0 0.00 0.00 0.00 99 1011.9
20260905135513 77 243 0.0 0.0 0.00 0.00 0.00 99 1011.9
20260905135008 77 243 0.0 0.0 0.00 0.00 0.00 99 1012.1
20260905134507 77 243 0.0 0.0 0.00 0.00 0.00 99 1011.9
20260905134006 77 243 0.0 0.0 0.00 0.00 0.00 99 1011.9
20260905133502 77 243 0.0 0.0 0.00 0.00 0.00 99 1012.2
20260905132955 77 243 0.0 0.0 0.00 0.00 0.00 99 1012.1
20260905132451 77 243 0.0 0.0 0.00 0.00 0.00 99 1012.1
20260905131945 77 246 0.0 0.0 0.00 0.00 0.00 99 1012.0
20260905131442 76 248 0.0 0.0 0.00 0.00 0.00 99 1011.9
20260905130941 76 250 0.0 0.0 0.00 0.00 0.00 99 1012.2
20260905130436 76 239 0.0 0.0 0.00 0.00 0.00 99 1011.9
20260905125935 76 243 0.0 0.0 0.00 0.00 0.00 99 1012.2
20260905125430 75 243 0.0 0.0 0.00 0.00 0.00 99 1012.1
20260905124926 75 243 0.0 0.0 0.00 0.00 0.00 99 1012.1
20260905124423 75 243 0.0 0.0 0.00 0.00 0.00 99 1012.4
20260905123922 75 243 0.0 0.0 0.00 0.00 0.00 99 1012.0
20260905123419 75 243 0.0 0.0 0.00 0.00 0.00 99 1012.0
20260905122914 75 243 0.0 0.0 0.00 0.00 0.00 99 1011.7
20260905122413 75 243 0.0 0.0 0.00 0.00 0.00 99 1012.0
20260905121910 74 242 0.0 0.0 0.00 0.00 0.00 99 1011.9
20260905121405 74 242 0.0 0.0 0.00 0.00 0.00 99 1012.2
20260905120904 74 241 0.0 0.0 0.00 0.00 0.00 99 1011.8
20260905120404 74 241 0.0 0.0 0.00 0.00 0.00 99 1011.9
20260905115858 74 241 0.0 0.0 0.00 0.00 0.00 99 1011.9